Lid_Strength_Index
5 5 4 4 3 3 3 2 2 1 1 0 -0 -0 -0 -0 -0 -0 -0 0 0 1 1 1 1 0 1 1 2 1 1 2 3 2 1 -0 -0 -0 -1 -1 -1 -1 -1
5 5 6 5 4 4 3 3 2 2 0 -0 -0 -0 -0 -0 -0 -0 0 0 1 1 1 1 1 1 1 1 1 1 1 1 2 3 1 1 1 -0 -0 0 -0 -1 -1
5 5 5 5 5 4 4 3 2 2 1 -0 -0 0 0 0 -0 -0 -0 0 0 0 1 1 1 1 2 1 1 1 1 1 1 2 2 1 1 0 0 0 -0 -1 -1
5 6 5 5 5 5 4 4 3 4 3 2 1 0 1 1 0 -0 0 0 0 0 -0 0 0 1 1 1 1 1 1 1 1 2 2 2 1 0 0 1 1 0 0
5 5 4 4 4 4 4 4 3 3 2 2 2 1 1 0 2 1 0 0 0 0 -0 0 -0 0 2 2 1 1 1 2 2 2 2 2 2 2 2 1 2 1 0
4 5 4 4 3 3 3 2 2 2 2 2 2 2 1 1 5 7 4 0 0 0 1 0 -0 0 1 3 4 4 2 2 2 2 2 3 2 2 1 1 2 2 3
3 3 3 3 3 2 2 2 2 2 1 1 1 1 1 1 5 8 7 0 0 0 0 0 0 -0 0 0 3 4 4 5 4 1 2 2 2 1 1 1 1 2 2
3 3 3 2 2 2 2 2 1 1 1 1 1 1 1 1 5 7 7 1 -0 -0 -0 -0 0 -0 -0 0 0 0 0 0 -0 0 1 1 0 -0 -0 1 1 1 1
3 3 3 2 2 2 2 2 1 1 1 1 1 1 1 0 4 7 5 0 1 0 -0 -0 -0 -0 5 6 0 1 1 0 1 3 4 6 8 7 5 1 2 3 3
2 2 2 2 1 1 1 1 1 1 1 1 1 0 1 0 3 5 4 1 1 1 -0 -0 2 1 6 5 0 1 1 1 0 -0 -0 0 1 0 6 1 1 3 3
1 1 1 1 1 1 0 0 0 0 0 1 1 0 -0 0 -0 4 6 1 1 1 1 1 0 5 6 7 7 0 1 0 1 0 1 0 0 -0 -0 -0 -0 1 3
1 1 1 1 1 1 0 0 0 1 1 1 1 1 0 -0 2 3 5 6 3 3 2 1 0 6 7 7 7 6 6 5 1 1 1 1 1 1 0 -0 -1 -0 -1
1 1 1 0 0 1 1 1 1 1 1 2 2 2 1 1 0 4 6 6 4 3 1 2 6 6 7 6 6 7 8 3 1 2 2 1 1 0 -0 -0 -1 -1 -1
1 1 1 1 2 1 1 2 2 2 2 2 2 2 2 2 1 0 0 0 2 1 3 1 2 5 6 4 4 1 0 0 1 2 2 1 0 1 1 0 1 1 2
2 2 2 2 3 3 3 2 2 2 3 3 3 2 3 2 2 4 4 4 4 5 6 2 1 1 2 1 1 1 0 0 1 1 2 2 2 1 1 0 1 2 3
3 3 3 4 4 4 3 3 5 6 7 7 8 6 3 5 6 7 7 8 8 8 5 3 2 2 2 2 2 2 1 1 1 1 2 2 2 2 2 1 1 2 3
4 4 3 4 4 4 4 5 6 5 6 6 7 7 8 7 7 8 8 8 8 8 6 3 2 2 2 2 2 2 2 1 0 1 1 1 1 2 3 2 2 2 3
3 5 3 4 4 4 4 4 4 4 5 3 4 5 5 7 7 7 7 7 3 5 4 3 2 1 2 2 1 2 1 1 1 1 1 1 1 2 2 2 2 2 3
3 4 4 4 4 4 4 3 3 4 4 3 2 3 3 5 6 6 7 3 2 2 2 2 2 1 1 1 1 1 2 2 1 1 1 2 1 2 2 2 2 7 5
4 5 5 4 4 3 3 3 3 4 3 3 3 3 3 3 2 2 1 3 3 3 3 2 1 1 1 1 2 2 2 2 2 1 1 1 1 1 2 3 2 3 3
4 4 7 3 4 4 4 3 3 4 4 3 4 4 9 4 3 3 4 4 4 4 4 4 4 3 3 4 4 3 2 2 2 3 2 2 2 3 3 2 3 2 2
4 4 4 4 4 4 4 4 4 4 5 5 5 4 8 4 5 5 5 5 5 4 4 5 5 5 5 5 4 4 4 4 4 4 4 4 4 4 3 3 3 2 3
4 4 4 4 5 6 5 5 5 5 6 6 6 6 6 5 5 5 5 4 3 4 5 6 6 6 5 4 3 4 5 5 5 5 6 6 6 6 5 3 4 4 4
4 4 4 4 5 5 6 6 5 7 6 6 7 7 7 6 4 4 4 4 4 5 6 6 6 6 6 6 6 5 5 5 6 7 7 7 6 7 6 5 4 4 5
3 4 4 4 5 5 5 6 6 5 5 6 6 6 6 5 5 4 5 5 5 5 6 6 5 7 7 5 4 3 7 10 9 10 7 6 6 6 6 6 5 5 6
4 4 5 5 5 5 5 5 6 5 6 7 7 6 6 6 6 7 8 8 8 8 7 7 6 4 4 4 4 9 10 11 9 11 7 5 6 6 6 7 6 6 6